Wind_Speed
11 14 12 11 6 7 3 2 2 2 2 3 2 5 5 3 3 5 7 9 11 10 8 13 14 10 12 13 13 18 21 23 26 30 31 28 18 14 15 20 21 25 23
11 10 7 5 3 1 3 2 1 2 5 6 2 4 4 1 4 6 7 13 14 7 7 6 9 15 14 16 16 18 13 17 23 26 16 22 19 20 24 21 22 23 21
7 3 4 3 1 2 3 3 1 2 5 9 5 4 2 3 4 5 7 10 16 13 6 9 13 13 14 15 7 5 5 11 18 18 21 18 22 16 25 25 20 24 19
5 2 3 2 2 3 2 3 2 4 6 11 11 4 2 5 5 5 9 13 12 8 13 9 12 11 8 10 14 14 16 15 18 23 25 24 20 18 23 21 21 21 18
2 1 4 5 4 2 1 3 3 5 7 12 14 5 5 7 5 5 8 10 10 10 12 14 12 13 17 16 18 12 16 18 18 20 17 19 20 25 20 17 18 16 16
1 3 5 3 3 2 2 3 5 5 7 10 11 9 5 10 5 5 5 9 14 16 14 15 12 13 14 14 13 13 16 12 14 20 16 19 21 16 14 12 14 16 11
3 5 6 3 5 3 3 2 6 7 7 9 10 10 8 11 8 4 5 9 16 17 13 11 11 13 12 10 8 13 15 15 17 19 17 22 15 10 8 9 15 11 12
5 7 8 8 6 5 5 6 8 6 7 8 8 8 10 11 11 7 7 9 10 11 17 16 13 10 10 6 10 11 11 10 16 18 18 16 13 5 7 13 13 11 11
7 8 11 10 8 7 7 7 4 2 3 6 9 10 11 12 14 11 10 7 7 13 15 15 13 11 10 7 12 15 12 13 15 17 18 14 10 8 10 13 10 9 6
7 7 10 11 11 11 8 8 8 8 6 6 9 12 12 13 14 14 12 9 9 12 13 14 14 14 14 14 16 15 14 14 18 17 12 10 11 13 11 10 7 4 1
7 7 10 11 11 10 13 12 9 12 12 12 11 14 15 16 16 17 13 9 9 8 7 12 12 14 17 17 17 17 17 17 17 16 14 11 11 10 7 3 1 2 6
8 7 8 11 11 10 12 16 15 15 14 14 16 15 13 15 17 17 15 13 10 12 17 16 21 19 17 18 19 19 18 16 14 12 9 7 5 3 3 5 7 10 13
9 8 6 7 9 11 10 13 15 17 20 23 25 23 14 11 14 16 16 13 16 17 19 19 23 22 21 19 16 14 12 9 7 5 4 2 2 3 6 8 10 12 14
9 8 7 7 8 11 11 11 13 14 16 19 21 24 25 30 19 17 24 24 24 23 21 22 19 17 16 13 11 8 6 4 2 0 1 4 6 8 10 11 12 13 15
9 9 7 7 9 11 12 12 12 13 16 19 22 23 24 24 25 23 23 21 19 17 17 15 14 12 11 9 7 5 2 0 1 2 5 7 8 10 11 13 14 15 16
8 9 9 9 10 12 12 13 15 17 19 22 21 19 18 17 17 17 16 15 14 13 12 10 8 7 6 5 4 3 3 3 3 5 6 8 9 11 13 14 15 17 19
9 8 9 10 11 12 13 13 13 14 17 16 14 12 12 13 14 13 12 11 11 10 9 7 4 2 1 3 4 5 3 4 5 7 5 6 8 9 10 14 18 22 23
11 11 10 11 12 12 13 13 13 13 13 11 9 6 6 6 6 7 6 6 6 3 2 0 1 3 2 1 2 2 3 6 6 5 6 8 10 13 17 19 20 23 21
15 13 13 13 13 13 15 15 15 14 12 10 8 6 6 6 4 4 3 3 4 4 3 3 4 4 4 3 4 6 9 12 11 10 12 13 18 18 17 20 20 22 26
14 15 16 15 16 16 15 17 18 18 17 15 14 14 13 12 11 11 10 10 10 10 9 7 5 5 4 3 6 10 12 15 16 18 18 19 18 20 22 22 24 26 28
17 17 17 18 18 19 20 20 20 20 20 20 20 19 18 18 16 14 15 15 16 14 11 9 8 9 9 11 12 14 17 19 19 20 21 20 21 23 25 29 31 31 34
21 20 19 18 18 20 21 21 22 23 24 23 23 22 22 21 20 19 19 18 17 16 13 12 12 12 13 16 18 20 20 19 20 19 19 21 24 25 27 29 34 35 36
29 27 24 23 20 20 21 23 23 23 24 25 26 24 24 24 23 24 24 22 20 18 17 16 16 17 19 21 22 22 22 22 20 20 24 26 28 29 29 31 34 38 37
30 31 31 29 29 26 22 23 25 26 26 27 28 28 26 28 27 27 27 27 25 23 23 22 22 22 22 21 21 23 23 22 24 27 28 29 29 32 33 34 36 37 37
33 33 33 32 32 33 30 27 26 27 28 28 29 29 29 29 30 29 29 29 29 30 28 25 23 23 23 22 22 22 23 26 30 33 32 31 33 34 34 33 35 38 39
36 36 37 37 36 35 37 35 32 31 31 31 31 31 31 31 32 32 31 31 31 32 31 31 28 26 26 26 24 25 28 31 33 33 32 31 29 33 35 38 38 40 42
Wind_Direction
286 302 302 298 321 320 342 15 9 10 182 127 239 138 121 124 92 29 40 105 145 146 174 184 182 187 184 184 179 185 183 180 188 195 183 194 197 185 203 211 193 182 179
297 305 296 302 334 6 25 18 348 88 174 153 188 154 136 86 73 41 31 32 71 85 93 159 154 171 173 174 188 186 187 187 189 196 179 178 176 176 179 167 172 189 187
315 303 282 321 43 126 62 43 292 117 171 164 167 168 138 90 78 39 18 84 98 62 117 126 149 166 174 186 172 161 121 131 144 154 142 151 155 150 179 175 174 177 169
314 286 278 15 66 68 59 77 67 137 159 180 166 151 115 119 105 63 71 115 101 72 74 132 130 162 143 128 122 101 80 98 123 128 124 134 151 155 161 165 153 152 160
286 304 294 344 33 33 95 114 100 133 157 177 173 176 141 127 111 67 72 91 86 83 90 126 116 127 122 122 120 96 78 122 122 143 131 118 132 137 140 143 148 153 177
42 350 337 347 65 19 205 138 143 130 158 165 181 178 154 140 133 98 59 82 100 81 115 110 127 126 118 129 105 87 101 103 116 133 135 129 123 125 129 143 168 174 207
36 5 359 86 88 73 145 129 157 146 157 165 170 179 183 163 150 124 92 82 86 82 85 142 133 142 116 118 99 119 97 109 123 134 130 142 128 128 142 152 186 223 227
48 31 53 69 69 84 96 123 148 144 151 153 158 170 177 175 167 147 126 105 102 92 85 112 117 149 149 123 90 138 136 105 137 135 148 154 151 144 148 173 186 140 104
70 63 69 74 84 88 94 96 115 153 192 192 180 172 171 170 167 160 144 112 100 112 100 105 110 114 154 131 110 139 159 145 134 147 156 162 169 165 139 107 114 137 156
91 90 91 80 69 71 78 70 83 96 93 138 162 169 164 163 159 160 150 139 119 115 106 124 121 119 128 115 108 99 128 134 127 136 151 152 141 124 120 129 135 137 193
104 101 97 93 81 78 78 81 90 93 90 105 130 150 154 151 154 158 154 144 137 123 139 138 129 117 124 115 109 108 119 108 108 111 125 127 124 128 130 123 84 312 297
113 112 107 104 97 92 95 90 90 92 91 102 108 139 152 148 152 161 155 147 140 123 130 132 133 123 121 124 121 118 119 123 122 116 116 115 111 90 35 343 329 314 315
125 116 110 116 112 108 109 105 99 93 82 95 103 97 106 120 156 160 157 144 132 132 134 127 125 127 130 128 126 123 124 124 116 109 97 61 10 328 313 310 308 304 302
144 127 115 113 114 119 118 121 117 109 104 99 94 93 90 88 117 135 141 130 121 119 114 119 124 128 129 128 129 132 136 136 131 164 303 290 286 286 286 290 299 306 311
170 152 141 127 128 125 126 125 122 120 117 111 106 102 101 103 103 104 109 116 121 122 122 126 129 132 135 135 135 142 149 80 329 304 288 287 290 298 308 311 311 314 318
185 177 164 155 149 142 136 132 128 127 127 125 118 110 102 100 104 110 116 121 124 128 128 130 134 139 140 134 116 91 63 27 342 307 296 295 303 311 314 317 317 316 320
218 198 182 177 170 167 159 152 145 143 149 145 134 119 106 98 99 98 99 108 112 119 120 111 104 113 120 112 118 65 82 17 352 5 349 308 302 302 310 317 321 325 324
221 221 211 199 192 184 183 180 175 172 168 166 169 162 146 135 115 99 91 92 95 122 164 208 7 349 280 228 194 279 326 336 345 319 315 319 313 312 314 321 324 324 326
226 226 225 224 216 205 194 195 200 203 205 202 198 208 224 235 256 276 292 322 328 326 330 268 260 307 328 254 240 294 310 321 311 323 312 310 315 311 308 311 317 321 317
229 238 239 236 233 229 222 211 206 209 215 225 230 235 241 250 258 265 280 292 296 298 301 288 276 281 289 303 316 313 312 309 307 309 312 314 311 310 312 313 313 316 317
232 235 242 242 241 237 237 237 231 223 219 219 224 233 239 243 248 259 271 280 286 293 297 286 269 273 266 263 288 301 305 304 298 303 304 307 305 306 309 313 313 316 313
241 241 244 243 246 247 246 243 244 241 237 235 235 235 236 245 251 254 258 266 274 280 280 279 277 281 280 275 280 296 299 294 290 293 297 297 297 303 311 311 311 314 316
247 248 249 250 245 245 248 249 251 250 247 245 245 244 244 249 250 253 255 257 260 258 261 267 273 276 276 277 284 285 284 284 286 286 285 290 301 306 308 309 308 308 313
244 247 245 244 246 248 246 250 252 253 252 249 248 251 251 253 255 254 258 262 258 257 261 263 270 271 272 275 279 280 281 283 283 283 289 296 298 298 302 304 303 305 310
244 249 251 245 245 247 249 248 251 252 255 258 261 261 262 258 257 258 258 258 261 263 260 261 262 264 270 270 267 271 278 282 282 286 293 295 295 299 301 300 302 304 311
244 245 251 254 252 249 253 252 253 255 256 255 257 259 262 264 267 267 265 265 264 265 263 263 261 260 260 262 264 267 269 272 280 287 290 292 293 296 301 301 302 304 305
Height
5723 5721 5718 5716 5713 5710 5707 5704 5703 5702 5702 5701 5701 5700 5699 5699 5698 5696 5694 5694 5695 5694 5694 5694 5696 5698 5700 5704 5707 5708 5710 5715 5719 5722 5727 5731 5735 5741 5746 5750 5757 5764 5770
5721 5718 5716 5713 5711 5709 5706 5704 5703 5703 5702 5702 5703 5702 5701 5701 5701 5700 5698 5697 5696 5696 5696 5694 5698 5700 5702 5705 5708 5710 5712 5716 5719 5722 5727 5732 5736 5741 5748 5753 5759 5765 5770
5718 5716 5714 5712 5710 5708 5706 5705 5703 5703 5703 5704 5704 5704 5704 5704 5704 5703 5701 5701 5700 5700 5697 5698 5700 5703 5705 5707 5711 5713 5714 5716 5718 5723 5727 5732 5738 5744 5750 5756 5761 5766 5770
5717 5715 5714 5712 5710 5708 5706 5705 5704 5704 5704 5705 5705 5706 5706 5707 5708 5708 5706 5704 5703 5702 5702 5703 5703 5706 5709 5712 5715 5716 5718 5719 5723 5727 5732 5737 5742 5746 5752 5758 5763 5767 5772
5716 5715 5713 5711 5709 5707 5706 5705 5705 5705 5705 5706 5706 5708 5708 5710 5711 5710 5709 5707 5707 5706 5706 5708 5709 5710 5714 5717 5719 5722 5723 5725 5728 5733 5738 5742 5745 5751 5757 5761 5765 5769 5773
5717 5715 5713 5710 5708 5707 5706 5706 5706 5706 5706 5707 5708 5709 5710 5712 5713 5714 5713 5710 5711 5711 5712 5714 5716 5717 5720 5722 5724 5727 5729 5731 5735 5738 5743 5747 5751 5756 5760 5764 5768 5772 5776
5717 5716 5713 5710 5708 5707 5707 5706 5706 5706 5707 5708 5708 5710 5711 5713 5715 5716 5717 5715 5714 5714 5715 5717 5719 5722 5725 5727 5729 5732 5734 5737 5740 5745 5748 5752 5757 5760 5764 5766 5771 5774 5777
5718 5717 5714 5712 5710 5709 5708 5707 5707 5707 5708 5709 5710 5711 5712 5714 5717 5719 5720 5720 5721 5720 5720 5722 5725 5727 5730 5732 5733 5736 5739 5742 5745 5748 5752 5757 5761 5763 5766 5768 5771 5773 5775
5719 5718 5717 5715 5714 5713 5711 5709 5708 5708 5708 5709 5709 5711 5713 5715 5718 5721 5723 5724 5724 5724 5725 5726 5728 5730 5732 5734 5736 5738 5742 5747 5749 5752 5756 5760 5763 5764 5767 5769 5773 5775 5777
5721 5720 5720 5719 5717 5716 5714 5713 5711 5709 5709 5708 5709 5711 5714 5717 5720 5723 5725 5727 5728 5729 5729 5730 5732 5734 5736 5738 5740 5743 5745 5749 5753 5756 5760 5764 5765 5767 5769 5772 5774 5776 5778
5722 5722 5722 5722 5721 5720 5718 5717 5715 5714 5712 5711 5711 5713 5715 5718 5721 5725 5727 5729 5731 5732 5732 5734 5735 5737 5739 5742 5745 5748 5751 5755 5757 5760 5764 5767 5769 5771 5772 5774 5775 5777 5777
5724 5724 5724 5724 5724 5723 5723 5721 5720 5718 5717 5715 5715 5716 5718 5720 5722 5726 5729 5732 5733 5734 5735 5737 5739 5741 5744 5746 5750 5753 5756 5759 5761 5764 5768 5769 5770 5771 5772 5774 5775 5775 5775
5725 5726 5726 5726 5726 5726 5726 5726 5726 5725 5723 5721 5722 5722 5722 5724 5726 5729 5732 5734 5737 5740 5741 5743 5744 5747 5750 5753 5756 5758 5760 5763 5765 5768 5769 5770 5771 5772 5773 5774 5774 5774 5773
5726 5727 5727 5727 5728 5728 5728 5729 5730 5731 5730 5730 5730 5730 5730 5729 5730 5732 5735 5738 5742 5744 5746 5748 5751 5753 5755 5757 5759 5761 5763 5765 5766 5767 5768 5769 5771 5771 5772 5772 5772 5771 5770
5727 5728 5728 5729 5730 5731 5731 5732 5733 5734 5735 5736 5736 5737 5737 5738 5739 5741 5742 5744 5747 5749 5751 5753 5755 5757 5758 5760 5761 5763 5765 5766 5767 5767 5768 5769 5769 5769 5769 5768 5768 5768 5767
5727 5728 5729 5730 5732 5733 5734 5736 5736 5737 5739 5740 5741 5743 5744 5745 5746 5747 5748 5749 5751 5753 5754 5756 5757 5759 5760 5762 5763 5764 5765 5766 5766 5766 5766 5766 5766 5766 5766 5766 5765 5764 5762
5727 5728 5730 5731 5732 5734 5735 5737 5739 5741 5742 5743 5744 5746 5747 5749 5750 5751 5752 5754 5755 5756 5757 5758 5759 5759 5760 5761 5762 5763 5764 5765 5765 5765 5765 5765 5765 5765 5764 5763 5761 5758 5756
5726 5728 5729 5730 5732 5734 5735 5738 5740 5742 5743 5745 5746 5748 5749 5751 5752 5754 5755 5756 5757 5758 5759 5759 5760 5760 5761 5762 5763 5764 5764 5764 5764 5764 5763 5763 5761 5761 5759 5757 5755 5752 5750
5724 5726 5728 5729 5731 5733 5734 5736 5739 5741 5743 5745 5747 5749 5749 5751 5752 5753 5755 5756 5757 5758 5758 5759 5760 5760 5760 5761 5762 5763 5762 5762 5761 5760 5758 5758 5757 5756 5754 5752 5751 5749 5745
5721 5724 5725 5727 5729 5731 5733 5734 5736 5738 5740 5743 5745 5746 5748 5749 5750 5751 5752 5753 5754 5756 5757 5757 5758 5759 5760 5760 5760 5760 5759 5758 5757 5756 5756 5756 5754 5752 5750 5748 5746 5743 5740
5716 5719 5721 5724 5726 5727 5729 5732 5733 5735 5737 5738 5740 5742 5745 5746 5747 5748 5749 5750 5751 5752 5753 5754 5755 5755 5756 5757 5756 5756 5756 5755 5754 5753 5753 5752 5750 5748 5746 5743 5741 5740 5735
5713 5715 5717 5719 5721 5723 5725 5727 5729 5731 5733 5735 5736 5739 5741 5742 5743 5744 5744 5746 5746 5748 5749 5750 5751 5752 5752 5752 5752 5751 5750 5749 5748 5748 5747 5745 5741 5741 5740 5738 5733 5731 5728
5707 5709 5711 5713 5716 5717 5719 5722 5723 5725 5727 5729 5731 5733 5735 5736 5738 5739 5739 5740 5741 5742 5743 5745 5745 5746 5746 5746 5746 5745 5744 5742 5743 5742 5740 5738 5737 5736 5734 5730 5726 5721 5718
5700 5703 5705 5707 5708 5710 5713 5715 5717 5718 5720 5722 5724 5726 5729 5729 5730 5731 5732 5733 5734 5735 5736 5737 5738 5738 5738 5739 5739 5739 5739 5739 5736 5734 5734 5733 5731 5727 5724 5722 5717 5713 5709
5693 5695 5697 5700 5702 5703 5705 5707 5710 5712 5713 5715 5718 5720 5721 5723 5724 5724 5725 5726 5727 5729 5729 5729 5730 5731 5731 5731 5730 5731 5731 5730 5727 5726 5726 5726 5722 5718 5715 5712 5707 5703 5702
5685 5687 5689 5691 5694 5696 5697 5699 5701 5704 5706 5708 5710 5712 5714 5715 5716 5718 5719 5719 5720 5720 5722 5723 5724 5723 5723 5723 5722 5721 5720 5719 5718 5716 5715 5714 5714 5709 5706 5703 5699 5695 5690